Year,Month,Day,Hour,Minute,Value (Times are PST for temperature in C)
2017,07,15,00,00,19.20
2017,07,15,00,01,19.30
2017,07,15,00,02,19.30
2017,07,15,00,03,19.30
2017,07,15,00,04,19.30
2017,07,15,00,05,19.30
2017,07,15,00,06,19.30
2017,07,15,00,07,19.30
2017,07,15,00,08,19.40
2017,07,15,00,09,19.40
2017,07,15,00,10,19.40
2017,07,15,00,11,19.40
2017,07,15,00,12,19.40
2017,07,15,00,13,19.40
2017,07,15,00,14,19.40
2017,07,15,00,15,19.40
2017,07,15,00,16,19.40
2017,07,15,00,17,19.50
2017,07,15,00,18,19.50
2017,07,15,00,19,19.50
2017,07,15,00,20,19.60
2017,07,15,00,21,19.60
2017,07,15,00,22,19.60
2017,07,15,00,23,19.60
2017,07,15,00,24,19.60
2017,07,15,00,25,19.60
2017,07,15,00,26,19.60
2017,07,15,00,27,19.60
2017,07,15,00,28,19.60
2017,07,15,00,29,19.60
2017,07,15,00,30,19.60
2017,07,15,00,31,19.60
2017,07,15,00,32,19.60
2017,07,15,00,33,19.50
2017,07,15,00,34,19.50
2017,07,15,00,35,19.50
2017,07,15,00,36,19.50
2017,07,15,00,37,19.50
2017,07,15,00,38,19.50
2017,07,15,00,39,19.50
2017,07,15,00,40,19.50
2017,07,15,00,41,19.50
2017,07,15,00,42,19.50
2017,07,15,00,43,19.40
2017,07,15,00,44,19.40
2017,07,15,00,45,19.40
2017,07,15,00,46,19.40
2017,07,15,00,47,19.40
2017,07,15,00,48,19.40
2017,07,15,00,49,19.40
2017,07,15,00,50,19.30
2017,07,15,00,51,19.30
2017,07,15,00,52,19.30
2017,07,15,00,53,19.30
2017,07,15,00,54,19.30
2017,07,15,00,55,19.30
2017,07,15,00,56,19.20
2017,07,15,00,57,19.20
2017,07,15,00,58,19.20
2017,07,15,00,59,19.10
2017,07,15,01,00,19.00
2017,07,15,01,01,19.00
2017,07,15,01,02,18.90
2017,07,15,01,03,18.90
2017,07,15,01,04,18.90
2017,07,15,01,05,18.80
2017,07,15,01,06,18.80
2017,07,15,01,07,18.80
2017,07,15,01,08,18.70
2017,07,15,01,09,18.70
2017,07,15,01,10,18.70
2017,07,15,01,11,18.60
2017,07,15,01,12,18.60
2017,07,15,01,13,18.60
2017,07,15,01,14,18.50
2017,07,15,01,15,18.50
2017,07,15,01,16,18.40
2017,07,15,01,17,18.40
2017,07,15,01,18,18.30
2017,07,15,01,19,18.30
2017,07,15,01,20,18.20
2017,07,15,01,21,18.20
2017,07,15,01,22,18.20
2017,07,15,01,23,18.10
2017,07,15,01,24,18.10
2017,07,15,01,25,18.00
2017,07,15,01,26,18.00
2017,07,15,01,27,17.90
2017,07,15,01,28,17.90
2017,07,15,01,29,17.90
2017,07,15,01,30,17.90
2017,07,15,01,31,17.80
2017,07,15,01,32,17.80
2017,07,15,01,33,17.80
2017,07,15,01,34,17.80
2017,07,15,01,35,17.80
2017,07,15,01,36,17.80
2017,07,15,01,37,17.80
2017,07,15,01,38,17.80
2017,07,15,01,39,17.70
2017,07,15,01,40,17.70
2017,07,15,01,41,17.70
2017,07,15,01,42,17.70
2017,07,15,01,43,17.70
2017,07,15,01,44,17.70
2017,07,15,01,45,17.70
2017,07,15,01,46,17.60
2017,07,15,01,47,17.60
2017,07,15,01,48,17.60
2017,07,15,01,49,17.60
2017,07,15,01,50,17.60
2017,07,15,01,51,17.50
2017,07,15,01,52,17.50
2017,07,15,01,53,17.50
2017,07,15,01,54,17.50
2017,07,15,01,55,17.40
2017,07,15,01,56,17.40
2017,07,15,01,57,17.40
2017,07,15,01,58,17.40
2017,07,15,01,59,17.40
2017,07,15,02,00,17.40
2017,07,15,02,01,17.30
2017,07,15,02,02,17.30
2017,07,15,02,03,17.30
2017,07,15,02,04,17.30
2017,07,15,02,05,17.30
2017,07,15,02,06,17.30
2017,07,15,02,07,17.20
2017,07,15,02,08,17.20
2017,07,15,02,09,17.20
2017,07,15,02,10,17.20
2017,07,15,02,11,17.20
2017,07,15,02,12,17.20
2017,07,15,02,13,17.20
2017,07,15,02,14,17.20
2017,07,15,02,15,17.20
2017,07,15,02,16,17.20
2017,07,15,02,17,17.10
2017,07,15,02,18,17.10
2017,07,15,02,19,17.10
2017,07,15,02,20,17.10
2017,07,15,02,21,17.10
2017,07,15,02,22,17.10
2017,07,15,02,23,17.10
2017,07,15,02,24,17.00
2017,07,15,02,25,17.00
2017,07,15,02,26,17.00
2017,07,15,02,27,16.90
2017,07,15,02,28,16.90
2017,07,15,02,29,16.90
2017,07,15,02,30,16.90
2017,07,15,02,31,16.90
2017,07,15,02,32,16.90
2017,07,15,02,33,16.90
2017,07,15,02,34,16.90
2017,07,15,02,35,16.90
2017,07,15,02,36,16.90
2017,07,15,02,37,16.90
2017,07,15,02,38,16.80
2017,07,15,02,39,16.80
2017,07,15,02,40,16.80
2017,07,15,02,41,16.80
2017,07,15,02,42,16.80
2017,07,15,02,43,16.80
2017,07,15,02,44,16.80
2017,07,15,02,45,16.80
2017,07,15,02,46,16.80
2017,07,15,02,47,16.80
2017,07,15,02,48,16.80
2017,07,15,02,49,16.80
2017,07,15,02,50,16.80
2017,07,15,02,51,16.80
2017,07,15,02,52,16.70
2017,07,15,02,53,16.70
2017,07,15,02,54,16.70
2017,07,15,02,55,16.70
2017,07,15,02,56,16.70
2017,07,15,02,57,16.70
2017,07,15,02,58,16.60
2017,07,15,02,59,16.60
2017,07,15,03,00,16.60
2017,07,15,03,01,16.60
2017,07,15,03,02,16.60
2017,07,15,03,03,16.60
2017,07,15,03,04,16.60
2017,07,15,03,05,16.50
2017,07,15,03,06,16.50
2017,07,15,03,07,16.50
2017,07,15,03,08,16.40
2017,07,15,03,09,16.40
2017,07,15,03,10,16.40
2017,07,15,03,11,16.40
2017,07,15,03,12,16.40
2017,07,15,03,13,16.40
2017,07,15,03,14,16.40
2017,07,15,03,15,16.40
2017,07,15,03,16,16.30
2017,07,15,03,17,16.30
2017,07,15,03,18,16.30
2017,07,15,03,19,16.30
2017,07,15,03,20,16.30
2017,07,15,03,21,16.30
2017,07,15,03,22,16.30
2017,07,15,03,23,16.30
2017,07,15,03,24,16.30
2017,07,15,03,25,16.30
2017,07,15,03,26,16.30
2017,07,15,03,27,16.30
2017,07,15,03,28,16.30
2017,07,15,03,29,16.30
2017,07,15,03,30,16.30
2017,07,15,03,31,16.30
2017,07,15,03,32,16.20
2017,07,15,03,33,16.20
2017,07,15,03,34,16.20
2017,07,15,03,35,16.10
2017,07,15,03,36,16.10
2017,07,15,03,37,16.10
2017,07,15,03,38,16.00
2017,07,15,03,39,16.00
2017,07,15,03,40,16.00
2017,07,15,03,41,15.90
2017,07,15,03,42,15.90
2017,07,15,03,43,15.90
2017,07,15,03,44,15.90
2017,07,15,03,45,15.90
2017,07,15,03,46,15.90
2017,07,15,03,47,15.80
2017,07,15,03,48,15.80
2017,07,15,03,49,15.80
2017,07,15,03,50,15.80
2017,07,15,03,51,15.80
2017,07,15,03,52,15.70
2017,07,15,03,53,15.70
2017,07,15,03,54,15.70
2017,07,15,03,55,15.70
2017,07,15,03,56,15.70
2017,07,15,03,57,15.70
2017,07,15,03,58,15.60
2017,07,15,03,59,15.60
2017,07,15,04,00,15.60
2017,07,15,04,01,15.60
2017,07,15,04,02,15.60
2017,07,15,04,03,15.60
2017,07,15,04,04,15.50
2017,07,15,04,05,15.50
2017,07,15,04,06,15.50
2017,07,15,04,07,15.50
2017,07,15,04,08,15.50
2017,07,15,04,09,15.40
2017,07,15,04,10,15.40
2017,07,15,04,11,15.40
2017,07,15,04,12,15.40
2017,07,15,04,13,15.40
2017,07,15,04,14,15.40
2017,07,15,04,15,15.40
2017,07,15,04,16,15.50
2017,07,15,04,17,15.50
2017,07,15,04,18,15.50
2017,07,15,04,19,15.50
2017,07,15,04,20,15.60
2017,07,15,04,21,15.60
2017,07,15,04,22,15.60
2017,07,15,04,23,15.60
2017,07,15,04,24,15.70
2017,07,15,04,25,15.70
2017,07,15,04,26,15.70
2017,07,15,04,27,15.70
2017,07,15,04,28,15.70
2017,07,15,04,29,15.60
2017,07,15,04,30,15.60
2017,07,15,04,31,15.60
2017,07,15,04,32,15.60
2017,07,15,04,33,15.60
2017,07,15,04,34,15.60
2017,07,15,04,35,15.60
2017,07,15,04,36,15.60
2017,07,15,04,37,15.60
2017,07,15,04,38,15.50
2017,07,15,04,39,15.50
2017,07,15,04,40,15.50
2017,07,15,04,41,15.40
2017,07,15,04,42,15.40
2017,07,15,04,43,15.40
2017,07,15,04,44,15.40
2017,07,15,04,45,15.40
2017,07,15,04,46,15.40
2017,07,15,04,47,15.40
2017,07,15,04,48,15.40
2017,07,15,04,49,15.40
2017,07,15,04,50,15.30
2017,07,15,04,51,15.40
2017,07,15,04,52,15.40
2017,07,15,04,53,15.40
2017,07,15,04,54,15.40
2017,07,15,04,55,15.40
2017,07,15,04,56,15.40
2017,07,15,04,57,15.50
2017,07,15,04,58,15.50
2017,07,15,04,59,15.50
2017,07,15,05,00,15.60
2017,07,15,05,01,15.60
2017,07,15,05,02,15.60
2017,07,15,05,03,15.60
2017,07,15,05,04,15.60
2017,07,15,05,05,15.50
2017,07,15,05,06,15.50
2017,07,15,05,07,15.50
2017,07,15,05,08,15.50
2017,07,15,05,09,15.40
2017,07,15,05,10,15.40
2017,07,15,05,11,15.40
2017,07,15,05,12,15.30
2017,07,15,05,13,15.30
2017,07,15,05,14,15.30
2017,07,15,05,15,15.30
2017,07,15,05,16,15.30
2017,07,15,05,17,15.30
2017,07,15,05,18,15.30
2017,07,15,05,19,15.30
2017,07,15,05,20,15.30
2017,07,15,05,21,15.30
2017,07,15,05,22,15.30
2017,07,15,05,23,15.30
2017,07,15,05,24,15.30
2017,07,15,05,25,15.20
2017,07,15,05,26,15.30
2017,07,15,05,27,15.30
2017,07,15,05,28,15.30
2017,07,15,05,29,15.30
2017,07,15,05,30,15.30
2017,07,15,05,31,15.30
2017,07,15,05,32,15.30
2017,07,15,05,33,15.30
2017,07,15,05,34,15.30
2017,07,15,05,35,15.30
2017,07,15,05,36,15.30
2017,07,15,05,37,15.30
2017,07,15,05,38,15.30
2017,07,15,05,39,15.30
2017,07,15,05,40,15.30
2017,07,15,05,41,15.30
2017,07,15,05,42,15.30
2017,07,15,05,43,15.30
2017,07,15,05,44,15.30
2017,07,15,05,45,15.30
2017,07,15,05,46,15.30
2017,07,15,05,47,15.30
2017,07,15,05,48,15.30
2017,07,15,05,49,15.30
2017,07,15,05,50,15.30
2017,07,15,05,51,15.20
2017,07,15,05,52,15.20
2017,07,15,05,53,15.20
2017,07,15,05,54,15.20
2017,07,15,05,55,15.20
2017,07,15,05,56,15.20
2017,07,15,05,57,15.20
2017,07,15,05,58,15.20
2017,07,15,05,59,15.20
2017,07,15,06,00,15.20
2017,07,15,06,01,15.20
2017,07,15,06,02,15.10
2017,07,15,06,03,15.10
2017,07,15,06,04,15.10
2017,07,15,06,05,15.10
2017,07,15,06,06,15.10
2017,07,15,06,07,15.00
2017,07,15,06,08,15.00
2017,07,15,06,09,15.00
2017,07,15,06,10,15.00
2017,07,15,06,11,14.90
2017,07,15,06,12,14.90
2017,07,15,06,13,14.90
2017,07,15,06,14,14.90
2017,07,15,06,15,14.90
2017,07,15,06,16,14.90
2017,07,15,06,17,14.80
2017,07,15,06,18,14.80
2017,07,15,06,19,14.80
2017,07,15,06,20,14.80
2017,07,15,06,21,14.80
2017,07,15,06,22,14.80
2017,07,15,06,23,14.80
2017,07,15,06,24,14.80
2017,07,15,06,25,14.90
2017,07,15,06,26,14.90
2017,07,15,06,27,14.90
2017,07,15,06,28,14.90
2017,07,15,06,29,14.90
2017,07,15,06,30,14.90
2017,07,15,06,31,15.00
2017,07,15,06,32,15.00
2017,07,15,06,33,15.00
2017,07,15,06,34,15.00
2017,07,15,06,35,15.00
2017,07,15,06,36,15.10
2017,07,15,06,37,15.10
2017,07,15,06,38,15.10
2017,07,15,06,39,15.10
2017,07,15,06,40,15.10
2017,07,15,06,41,15.00
2017,07,15,06,42,15.00
2017,07,15,06,43,15.00
2017,07,15,06,44,15.00
2017,07,15,06,45,15.00
2017,07,15,06,46,15.00
2017,07,15,06,47,15.00
2017,07,15,06,48,15.00
2017,07,15,06,49,15.00
2017,07,15,06,50,15.00
2017,07,15,06,51,15.00
2017,07,15,06,52,15.00
2017,07,15,06,53,15.10
2017,07,15,06,54,15.10
2017,07,15,06,55,15.10
2017,07,15,06,56,15.10
2017,07,15,06,57,15.10
2017,07,15,06,58,15.10
2017,07,15,06,59,15.10
2017,07,15,07,00,15.10
2017,07,15,07,01,15.10
2017,07,15,07,02,15.20
2017,07,15,07,03,15.20
2017,07,15,07,04,15.20
2017,07,15,07,05,15.20
2017,07,15,07,06,15.20
2017,07,15,07,07,15.20
2017,07,15,07,08,15.20
2017,07,15,07,09,15.20
2017,07,15,07,10,15.30
2017,07,15,07,11,15.30
2017,07,15,07,12,15.30
2017,07,15,07,13,15.30
2017,07,15,07,14,15.30
2017,07,15,07,15,15.30
2017,07,15,07,16,15.40
2017,07,15,07,17,15.40
2017,07,15,07,18,15.40
2017,07,15,07,19,15.40
2017,07,15,07,20,15.50
2017,07,15,07,21,15.50
2017,07,15,07,22,15.60
2017,07,15,07,23,15.60
2017,07,15,07,24,15.60
2017,07,15,07,25,15.60
2017,07,15,07,26,15.60
2017,07,15,07,27,15.70
2017,07,15,07,28,15.70
2017,07,15,07,29,15.70
2017,07,15,07,30,15.70
2017,07,15,07,31,15.70
2017,07,15,07,32,15.70
2017,07,15,07,33,15.70
2017,07,15,07,34,15.80
2017,07,15,07,35,15.80
2017,07,15,07,36,15.80
2017,07,15,07,37,15.80
2017,07,15,07,38,15.80
2017,07,15,07,39,15.80
2017,07,15,07,40,15.90
2017,07,15,07,41,15.90
2017,07,15,07,42,16.00
2017,07,15,07,43,16.00
2017,07,15,07,44,16.00
2017,07,15,07,45,16.10
2017,07,15,07,46,16.10
2017,07,15,07,47,16.10
2017,07,15,07,48,16.20
2017,07,15,07,49,16.20
2017,07,15,07,50,16.20
2017,07,15,07,51,16.20
2017,07,15,07,52,16.20
2017,07,15,07,53,16.20
2017,07,15,07,54,16.20
2017,07,15,07,55,16.20
2017,07,15,07,56,16.20
2017,07,15,07,57,16.30
2017,07,15,07,58,16.30
2017,07,15,07,59,16.30
2017,07,15,08,00,16.30
2017,07,15,08,01,16.30
2017,07,15,08,02,16.30
2017,07,15,08,03,16.30
2017,07,15,08,04,16.30
2017,07,15,08,05,16.30
2017,07,15,08,06,16.40
2017,07,15,08,07,16.40
2017,07,15,08,08,16.40
2017,07,15,08,09,16.50
2017,07,15,08,10,16.50
2017,07,15,08,11,16.60
2017,07,15,08,12,16.60
2017,07,15,08,13,16.60
2017,07,15,08,14,16.60
2017,07,15,08,15,16.60
2017,07,15,08,16,16.70
2017,07,15,08,17,16.70
2017,07,15,08,18,16.70
2017,07,15,08,19,16.80
2017,07,15,08,20,16.80
2017,07,15,08,21,16.80
2017,07,15,08,22,16.80
2017,07,15,08,23,16.90
2017,07,15,08,24,16.90
2017,07,15,08,25,16.90
2017,07,15,08,26,16.90
2017,07,15,08,27,16.90
2017,07,15,08,28,16.90
2017,07,15,08,29,17.00
2017,07,15,08,30,17.00
2017,07,15,08,31,17.00
2017,07,15,08,32,17.10
2017,07,15,08,33,17.10
2017,07,15,08,34,17.20
2017,07,15,08,35,17.20
2017,07,15,08,36,17.30
2017,07,15,08,37,17.30
2017,07,15,08,38,17.30
2017,07,15,08,39,17.40
2017,07,15,08,40,17.40
2017,07,15,08,41,17.50
2017,07,15,08,42,17.50
2017,07,15,08,43,17.60
2017,07,15,08,44,17.60
2017,07,15,08,45,17.60
2017,07,15,08,46,17.70
2017,07,15,08,47,17.80
2017,07,15,08,48,17.80
2017,07,15,08,49,17.90
2017,07,15,08,50,18.00
2017,07,15,08,51,18.10
2017,07,15,08,52,18.10
2017,07,15,08,53,18.10
2017,07,15,08,54,18.10
2017,07,15,08,55,18.10
2017,07,15,08,56,18.10
2017,07,15,08,57,18.10
2017,07,15,08,58,18.10
2017,07,15,08,59,18.20
2017,07,15,09,00,18.20
2017,07,15,09,01,18.30
2017,07,15,09,02,18.30
2017,07,15,09,03,18.40
2017,07,15,09,04,18.40
2017,07,15,09,05,18.40
2017,07,15,09,06,18.40
2017,07,15,09,07,18.40
2017,07,15,09,08,18.40
2017,07,15,09,09,18.50
2017,07,15,09,10,18.50
2017,07,15,09,11,18.60
2017,07,15,09,12,18.70
2017,07,15,09,13,18.70
2017,07,15,09,14,18.80
2017,07,15,09,15,18.80
2017,07,15,09,16,18.80
2017,07,15,09,17,18.80
2017,07,15,09,18,18.80
2017,07,15,09,19,18.80
2017,07,15,09,20,18.80
2017,07,15,09,21,18.80
2017,07,15,09,22,18.90
2017,07,15,09,23,18.90
2017,07,15,09,24,18.90
2017,07,15,09,25,18.90
2017,07,15,09,26,18.80
2017,07,15,09,27,18.80
2017,07,15,09,28,18.80
2017,07,15,09,29,18.90
2017,07,15,09,30,18.90
2017,07,15,09,31,18.90
2017,07,15,09,32,18.90
2017,07,15,09,33,19.00
2017,07,15,09,34,19.00
2017,07,15,09,35,19.00
2017,07,15,09,36,19.00
2017,07,15,09,37,19.10
2017,07,15,09,38,19.10
2017,07,15,09,39,19.10
2017,07,15,09,40,19.00
2017,07,15,09,41,19.00
2017,07,15,09,42,18.90
2017,07,15,09,43,18.90
2017,07,15,09,44,19.00
2017,07,15,09,45,19.00
2017,07,15,09,46,19.00
2017,07,15,09,47,19.00
2017,07,15,09,48,19.00
2017,07,15,09,49,19.10
2017,07,15,09,50,19.10
2017,07,15,09,51,19.10
2017,07,15,09,52,19.10
2017,07,15,09,53,19.10
2017,07,15,09,54,19.10
2017,07,15,09,55,19.10
2017,07,15,09,56,19.10
2017,07,15,09,57,19.20
2017,07,15,09,58,19.20
2017,07,15,09,59,19.20
2017,07,15,10,00,19.20
2017,07,15,10,01,19.30
2017,07,15,10,02,19.40
2017,07,15,10,03,19.40
2017,07,15,10,04,19.50
2017,07,15,10,05,19.50
2017,07,15,10,06,19.60
2017,07,15,10,07,19.60
2017,07,15,10,08,19.60
2017,07,15,10,09,19.60
2017,07,15,10,10,19.60
2017,07,15,10,11,19.60
2017,07,15,10,12,19.70
2017,07,15,10,13,19.70
2017,07,15,10,14,19.70
2017,07,15,10,15,19.70
2017,07,15,10,16,19.70
2017,07,15,10,17,19.80
2017,07,15,10,18,19.80
2017,07,15,10,19,19.80
2017,07,15,10,20,19.90
2017,07,15,10,21,20.10
2017,07,15,10,22,20.20
2017,07,15,10,23,20.20
2017,07,15,10,24,20.30
2017,07,15,10,25,20.30
2017,07,15,10,26,20.30
2017,07,15,10,27,20.30
2017,07,15,10,28,20.30
2017,07,15,10,29,20.20
2017,07,15,10,30,20.10
2017,07,15,10,31,20.00
2017,07,15,10,32,20.00
2017,07,15,10,33,20.00
2017,07,15,10,34,20.00
2017,07,15,10,35,20.00
2017,07,15,10,36,20.00
2017,07,15,10,37,20.00
2017,07,15,10,38,20.00
2017,07,15,10,39,20.10
2017,07,15,10,40,20.10
2017,07,15,10,41,20.20
2017,07,15,10,42,20.30
2017,07,15,10,43,20.30
2017,07,15,10,44,20.30
2017,07,15,10,45,20.30
2017,07,15,10,46,20.20
2017,07,15,10,47,20.20
2017,07,15,10,48,20.20
2017,07,15,10,49,20.20
2017,07,15,10,50,20.20
2017,07,15,10,51,20.20
2017,07,15,10,52,20.20
2017,07,15,10,53,20.20
2017,07,15,10,54,20.20
2017,07,15,10,55,20.20
2017,07,15,10,56,20.30
2017,07,15,10,57,20.40
2017,07,15,10,58,20.40
2017,07,15,10,59,20.40
2017,07,15,11,00,20.50
2017,07,15,11,01,20.60
2017,07,15,11,02,20.60
2017,07,15,11,03,20.60
2017,07,15,11,04,20.60
2017,07,15,11,05,20.70
2017,07,15,11,06,20.80
2017,07,15,11,07,20.80
2017,07,15,11,08,20.90
2017,07,15,11,09,21.00
2017,07,15,11,10,21.10
2017,07,15,11,11,21.20
2017,07,15,11,12,21.30
2017,07,15,11,13,21.30
2017,07,15,11,14,21.30
2017,07,15,11,15,21.20
2017,07,15,11,16,21.20
2017,07,15,11,17,21.20
2017,07,15,11,18,21.20
2017,07,15,11,19,21.20
2017,07,15,11,20,21.20
2017,07,15,11,21,21.20
2017,07,15,11,22,21.20
2017,07,15,11,23,21.20
2017,07,15,11,24,21.20
2017,07,15,11,25,21.20
2017,07,15,11,26,21.20
2017,07,15,11,27,21.20
2017,07,15,11,28,21.20
2017,07,15,11,29,21.20
2017,07,15,11,30,21.10
2017,07,15,11,31,21.10
2017,07,15,11,32,21.10
2017,07,15,11,33,21.20
2017,07,15,11,34,21.30
2017,07,15,11,35,21.40
2017,07,15,11,36,21.30
2017,07,15,11,37,21.20
2017,07,15,11,38,21.10
2017,07,15,11,39,20.90
2017,07,15,11,40,20.90
2017,07,15,11,41,20.80
2017,07,15,11,42,20.80
2017,07,15,11,43,20.70
2017,07,15,11,44,20.60
2017,07,15,11,45,20.50
2017,07,15,11,46,20.40
2017,07,15,11,47,20.40
2017,07,15,11,48,20.40
2017,07,15,11,49,20.50
2017,07,15,11,50,20.60
2017,07,15,11,51,20.70
2017,07,15,11,52,20.70
2017,07,15,11,53,20.70
2017,07,15,11,54,20.70
2017,07,15,11,55,20.70
2017,07,15,11,56,20.70
2017,07,15,11,57,20.60
2017,07,15,11,58,20.60
2017,07,15,11,59,20.60
2017,07,15,12,00,20.60
2017,07,15,12,01,20.60
2017,07,15,12,02,20.60
2017,07,15,12,03,20.60
2017,07,15,12,04,20.60
2017,07,15,12,05,20.60
2017,07,15,12,06,20.50
2017,07,15,12,07,20.50
2017,07,15,12,08,20.50
2017,07,15,12,09,20.50
2017,07,15,12,10,20.40
2017,07,15,12,11,20.40
2017,07,15,12,12,20.30
2017,07,15,12,13,20.30
2017,07,15,12,14,20.30
2017,07,15,12,15,20.30
2017,07,15,12,16,20.30
2017,07,15,12,17,20.20
2017,07,15,12,18,20.10
2017,07,15,12,19,20.10
2017,07,15,12,20,20.10
2017,07,15,12,21,20.10
2017,07,15,12,22,20.10
2017,07,15,12,23,20.00
2017,07,15,12,24,20.00
2017,07,15,12,25,19.90
2017,07,15,12,26,19.90
2017,07,15,12,27,20.00
2017,07,15,12,28,20.10
2017,07,15,12,29,20.20
2017,07,15,12,30,20.20
2017,07,15,12,31,20.30
2017,07,15,12,32,20.40
2017,07,15,12,33,20.40
2017,07,15,12,34,20.50
2017,07,15,12,35,20.40
2017,07,15,12,36,20.40
2017,07,15,12,37,20.30
2017,07,15,12,38,20.10
2017,07,15,12,39,20.00
2017,07,15,12,40,19.90
2017,07,15,12,41,19.80
2017,07,15,12,42,19.80
2017,07,15,12,43,19.70
2017,07,15,12,44,19.80
2017,07,15,12,45,19.80
2017,07,15,12,46,19.70
2017,07,15,12,47,19.70
2017,07,15,12,48,19.70
2017,07,15,12,49,19.70
2017,07,15,12,50,19.80
2017,07,15,12,51,19.90
2017,07,15,12,52,20.00
2017,07,15,12,53,20.10
2017,07,15,12,54,20.30
2017,07,15,12,55,20.40
2017,07,15,12,56,20.40
2017,07,15,12,57,20.30
2017,07,15,12,58,20.30
2017,07,15,12,59,20.30
2017,07,15,13,00,20.30
2017,07,15,13,01,20.30
2017,07,15,13,02,20.30
2017,07,15,13,03,20.30
2017,07,15,13,04,20.40
2017,07,15,13,05,20.40
2017,07,15,13,06,20.30
2017,07,15,13,07,20.30
2017,07,15,13,08,20.20
2017,07,15,13,09,20.20
2017,07,15,13,10,20.20
2017,07,15,13,11,20.10
2017,07,15,13,12,20.10
2017,07,15,13,13,20.10
2017,07,15,13,14,20.10
2017,07,15,13,15,20.10
2017,07,15,13,16,20.00
2017,07,15,13,17,19.90
2017,07,15,13,18,19.90
2017,07,15,13,19,20.00
2017,07,15,13,20,20.10
2017,07,15,13,21,20.20
2017,07,15,13,22,20.20
2017,07,15,13,23,20.30
2017,07,15,13,24,20.40
2017,07,15,13,25,20.50
2017,07,15,13,26,20.60
2017,07,15,13,27,20.60
2017,07,15,13,28,20.50
2017,07,15,13,29,20.50
2017,07,15,13,30,20.40
2017,07,15,13,31,20.20
2017,07,15,13,32,20.10
2017,07,15,13,33,20.10
2017,07,15,13,34,20.00
2017,07,15,13,35,20.00
2017,07,15,13,36,20.10
2017,07,15,13,37,20.20
2017,07,15,13,38,20.10
2017,07,15,13,39,19.90
2017,07,15,13,40,19.50
2017,07,15,13,41,19.10
2017,07,15,13,42,18.90
2017,07,15,13,43,18.70
2017,07,15,13,44,18.70
2017,07,15,13,45,18.70
2017,07,15,13,46,18.70
2017,07,15,13,47,18.80
2017,07,15,13,48,18.90
2017,07,15,13,49,19.00
2017,07,15,13,50,19.00
2017,07,15,13,51,19.10
2017,07,15,13,52,19.20
2017,07,15,13,53,19.30
2017,07,15,13,54,19.30
2017,07,15,13,55,19.30
2017,07,15,13,56,19.30
2017,07,15,13,57,19.40
2017,07,15,13,58,19.30
2017,07,15,13,59,19.40
2017,07,15,14,00,19.50
2017,07,15,14,01,19.50
2017,07,15,14,02,19.50
2017,07,15,14,03,19.60
2017,07,15,14,04,19.60
2017,07,15,14,05,19.70
2017,07,15,14,06,19.70
2017,07,15,14,07,19.70
2017,07,15,14,08,19.60
2017,07,15,14,09,19.70
2017,07,15,14,10,19.70
2017,07,15,14,11,19.70
2017,07,15,14,12,19.70
2017,07,15,14,13,19.80
2017,07,15,14,14,19.80
2017,07,15,14,15,19.90
2017,07,15,14,16,19.90
2017,07,15,14,17,19.90
2017,07,15,14,18,19.90
2017,07,15,14,19,20.00
2017,07,15,14,20,20.10
2017,07,15,14,21,20.10
2017,07,15,14,22,20.20
2017,07,15,14,23,20.30
2017,07,15,14,24,20.40
2017,07,15,14,25,20.50
2017,07,15,14,26,20.60
2017,07,15,14,27,20.70
2017,07,15,14,28,20.80
2017,07,15,14,29,20.80
2017,07,15,14,30,21.00
2017,07,15,14,31,21.10
2017,07,15,14,32,21.30
2017,07,15,14,33,21.40
2017,07,15,14,34,21.40
2017,07,15,14,35,21.50
2017,07,15,14,36,21.60
2017,07,15,14,37,21.60
2017,07,15,14,38,21.60
2017,07,15,14,39,21.60
2017,07,15,14,40,21.60
2017,07,15,14,41,21.70
2017,07,15,14,42,21.70
2017,07,15,14,43,21.70
2017,07,15,14,44,21.80
2017,07,15,14,45,21.80
2017,07,15,14,46,21.90
2017,07,15,14,47,21.90
2017,07,15,14,48,21.90
2017,07,15,14,49,22.00
2017,07,15,14,50,22.10
2017,07,15,14,51,22.20
2017,07,15,14,52,22.30
2017,07,15,14,53,22.50
2017,07,15,14,54,22.60
2017,07,15,14,55,22.70
2017,07,15,14,56,22.70
2017,07,15,14,57,22.80
2017,07,15,14,58,22.80
2017,07,15,14,59,22.90
2017,07,15,15,00,22.90
2017,07,15,15,01,22.90
2017,07,15,15,02,22.80
2017,07,15,15,03,22.70
2017,07,15,15,04,22.70
2017,07,15,15,05,22.70
2017,07,15,15,06,22.70
2017,07,15,15,07,22.70
2017,07,15,15,08,22.70
2017,07,15,15,09,22.70
2017,07,15,15,10,22.80
2017,07,15,15,11,22.80
2017,07,15,15,12,22.90
2017,07,15,15,13,23.00
2017,07,15,15,14,23.00
2017,07,15,15,15,23.00
2017,07,15,15,16,23.00
2017,07,15,15,17,22.90
2017,07,15,15,18,22.70
2017,07,15,15,19,22.60
2017,07,15,15,20,22.60
2017,07,15,15,21,22.50
2017,07,15,15,22,22.50
2017,07,15,15,23,22.40
2017,07,15,15,24,22.40
2017,07,15,15,25,22.40
2017,07,15,15,26,22.40
2017,07,15,15,27,22.50
2017,07,15,15,28,22.50
2017,07,15,15,29,22.60
2017,07,15,15,30,22.60
2017,07,15,15,31,22.60
2017,07,15,15,32,22.70
2017,07,15,15,33,22.70
2017,07,15,15,34,22.80
2017,07,15,15,35,22.80
2017,07,15,15,36,22.80
2017,07,15,15,37,22.80
2017,07,15,15,38,22.80
2017,07,15,15,39,22.80
2017,07,15,15,40,22.80
2017,07,15,15,41,22.80
2017,07,15,15,42,22.80
2017,07,15,15,43,22.90
2017,07,15,15,44,23.00
2017,07,15,15,45,23.10
2017,07,15,15,46,23.10
2017,07,15,15,47,23.00
2017,07,15,15,48,23.00
2017,07,15,15,49,22.90
2017,07,15,15,50,22.90
2017,07,15,15,51,22.90
2017,07,15,15,52,22.90
2017,07,15,15,53,22.80
2017,07,15,15,54,22.80
2017,07,15,15,55,22.80
2017,07,15,15,56,22.80
2017,07,15,15,57,22.90
2017,07,15,15,58,22.90
2017,07,15,15,59,22.90
2017,07,15,16,00,22.90
2017,07,15,16,01,22.90
2017,07,15,16,02,23.00
2017,07,15,16,03,23.10
2017,07,15,16,04,23.10
2017,07,15,16,05,23.10
2017,07,15,16,06,23.10
2017,07,15,16,07,23.10
2017,07,15,16,08,23.00
2017,07,15,16,09,23.00
2017,07,15,16,10,22.90
2017,07,15,16,11,22.80
2017,07,15,16,12,22.80
2017,07,15,16,13,22.70
2017,07,15,16,14,22.70
2017,07,15,16,15,22.70
2017,07,15,16,16,22.70
2017,07,15,16,17,22.70
2017,07,15,16,18,22.60
2017,07,15,16,19,22.50
2017,07,15,16,20,22.50
2017,07,15,16,21,22.60
2017,07,15,16,22,22.50
2017,07,15,16,23,22.60
2017,07,15,16,24,22.60
2017,07,15,16,25,22.60
2017,07,15,16,26,22.70
2017,07,15,16,27,22.80
2017,07,15,16,28,22.80
2017,07,15,16,29,22.80
2017,07,15,16,30,22.70
2017,07,15,16,31,22.60
2017,07,15,16,32,22.60
2017,07,15,16,33,22.50
2017,07,15,16,34,22.50
2017,07,15,16,35,22.40
2017,07,15,16,36,22.30
2017,07,15,16,37,22.30
2017,07,15,16,38,22.30
2017,07,15,16,39,22.30
2017,07,15,16,40,22.30
2017,07,15,16,41,22.20
2017,07,15,16,42,22.10
2017,07,15,16,43,22.10
2017,07,15,16,44,22.10
2017,07,15,16,45,22.10
2017,07,15,16,46,22.00
2017,07,15,16,47,22.00
2017,07,15,16,48,21.90
2017,07,15,16,49,21.80
2017,07,15,16,50,21.70
2017,07,15,16,51,21.60
2017,07,15,16,52,21.60
2017,07,15,16,53,21.50
2017,07,15,16,54,21.40
2017,07,15,16,55,21.40
2017,07,15,16,56,21.30
2017,07,15,16,57,21.30
2017,07,15,16,58,21.30
2017,07,15,16,59,21.20
2017,07,15,17,00,21.20
2017,07,15,17,01,21.20
2017,07,15,17,02,21.20
2017,07,15,17,03,21.20
2017,07,15,17,04,21.20
2017,07,15,17,05,21.20
2017,07,15,17,06,21.20
2017,07,15,17,07,21.10
2017,07,15,17,08,21.10
2017,07,15,17,09,21.10
2017,07,15,17,10,21.10
2017,07,15,17,11,21.10
2017,07,15,17,12,21.10
2017,07,15,17,13,21.10
2017,07,15,17,14,21.10
2017,07,15,17,15,21.10
2017,07,15,17,16,21.10
2017,07,15,17,17,21.10
2017,07,15,17,18,21.10
2017,07,15,17,19,21.10